This is the latest recevied weather packets stored in our database for station/object OZ0AJ-13. If no packets are shown the sender has not sent any weather packets the latest 10 day(s).
| Time | Temp. | Humidity | Pressure | Rain* | Wind** | Luminosity | Snow |
|---|---|---|---|---|---|---|---|
| 1777807834 | 15° C | 78% | 1011.1 hPa | 0 mm | - | - | - |
| 1777807231 | 15° C | 78% | 1011.3 hPa | 0 mm | - | - | - |
| 1777806627 | 15° C | 79% | 1011.5 hPa | 0 mm | - | - | - |
| 1777806023 | 13.89° C | 80% | 1011.5 hPa | 0 mm | - | - | - |
| 1777803627 | 12.78° C | 84% | 1011.7 hPa | 0 mm | - | - | - |
| 1777803023 | 12.22° C | 86% | 1011.9 hPa | 0 mm | - | - | - |
| 1777802419 | 11.67° C | 88% | 1011.9 hPa | 0 mm | - | - | - |
| 1777801815 | 11.11° C | 89% | 1011.9 hPa | 0 mm | - | - | - |
| 1777801232 | 11.11° C | 90% | 1011.9 hPa | 0 mm | - | - | - |
| 1777800628 | 10.56° C | 90% | 1011.9 hPa | 0 mm | - | - | - |
| 1777800024 | 10.56° C | 91% | 1011.9 hPa | 0 mm | - | - | - |
| 1777799420 | 10.56° C | 92% | 1011.9 hPa | 0 mm | - | - | - |
| 1777798816 | 10° C | 93% | 1012 hPa | 0 mm | - | - | - |
| 1777798233 | 10° C | 92% | 1012.4 hPa | 0 mm | - | - | - |
| 1777797628 | 10° C | 93% | 1012.3 hPa | 0 mm | - | - | - |
| 1777797025 | 10° C | 92% | 1012.3 hPa | 0 mm | - | - | - |
| 1777796421 | 10.56° C | 92% | 1012.4 hPa | 0 mm | - | - | - |
| 1777795817 | 10.56° C | 92% | 1012.3 hPa | 0 mm | - | - | - |
| 1777795233 | 10.56° C | 92% | 1012.1 hPa | 0 mm | - | - | - |
| 1777794629 | 10.56° C | 93% | 1012.1 hPa | 0 mm | - | - | - |
| 1777794025 | 10° C | 94% | 1011.9 hPa | 0 mm | - | - | - |
| 1777793421 | 10° C | 95% | 1012 hPa | 0 mm | - | - | - |
| 1777792817 | 9.44° C | 95% | 1012 hPa | 0 mm | - | - | - |
| 1777792234 | 9.44° C | 96% | 1011.9 hPa | 0 mm | - | - | - |
| 1777791630 | 9.44° C | 96% | 1011.9 hPa | 0 mm | - | - | - |
* Rain latest hour (hover to see other rain measurements)
** Current wind speed in m/s (hover to see current wind gust speed)